URO16Q EGFF-EGHH

Flight info

Callsign URO16Q
Flight time 0h 33m
Altitude 15000
Route LEKCI P4 HAWFA L607 NUCHU L18 NUBRI
Aircraft A346/H-SDE2E3FGHIJ3J4J5M1RWXY/LB1D1

Departure

Time 2026-05-07 17:29
Airport Cardiff International Airport (EGFF)

Arrival

Time 2026-05-07 18:02
Airport Bournemouth Airport (EGHH)
Time Latitude Longitude Altitude Speed Heading
2026-05-07 17:09 51.39706 -3.33602 230 ft 0 kts 207°
2026-05-07 17:24 51.39674 -3.33626 232 ft 11 kts 197°
2026-05-07 17:25 51.39603 -3.33562 234 ft 14 kts 120°
2026-05-07 17:25 51.39560 -3.33425 231 ft 14 kts 116°
2026-05-07 17:25 51.39507 -3.33254 234 ft 18 kts 116°
2026-05-07 17:25 51.39438 -3.33061 231 ft 21 kts 128°
2026-05-07 17:26 51.39333 -3.32897 234 ft 12 kts 137°
2026-05-07 17:26 51.39307 -3.32860 233 ft 4 kts 138°
2026-05-07 17:26 51.39274 -3.32820 236 ft 8 kts 144°
2026-05-07 17:26 51.39210 -3.32833 236 ft 11 kts 222°
2026-05-07 17:27 51.39217 -3.32924 233 ft 0 kts 297°
2026-05-07 17:27 51.39217 -3.32925 233 ft 0 kts 297°
2026-05-07 17:28 51.39241 -3.32999 233 ft 31 kts 297°
2026-05-07 17:28 51.39440 -3.33631 233 ft 96 kts 296°
2026-05-07 17:28 51.39835 -3.34883 240 ft 147 kts 296°
2026-05-07 17:29 51.40329 -3.36446 623 ft 157 kts 297°
2026-05-07 17:29 51.40832 -3.38030 1167 ft 162 kts 294°
2026-05-07 17:29 51.41356 -3.39709 1623 ft 173 kts 295°
2026-05-07 17:29 51.42181 -3.41246 1963 ft 192 kts 330°
2026-05-07 17:30 51.43528 -3.41705 2339 ft 209 kts
2026-05-07 17:30 51.44876 -3.40728 2682 ft 223 kts 44°
2026-05-07 17:30 51.45589 -3.38534 3126 ft 226 kts 84°
2026-05-07 17:30 51.45305 -3.36119 3680 ft 227 kts 122°
2026-05-07 17:31 51.44353 -3.33976 4103 ft 245 kts 124°
2026-05-07 17:31 51.43860 -3.31267 4607 ft 268 kts 89°
2026-05-07 17:31 51.44474 -3.28268 5494 ft 274 kts 62°
2026-05-07 17:31 51.45476 -3.25662 6470 ft 275 kts 59°
2026-05-07 17:32 51.46498 -3.23035 7314 ft 279 kts 60°
2026-05-07 17:32 51.47494 -3.20326 8175 ft 285 kts 62°
2026-05-07 17:32 51.48473 -3.17506 9034 ft 290 kts 62°
2026-05-07 17:32 51.49115 -3.15596 9634 ft 293 kts 63°
2026-05-07 17:33 51.50423 -3.11624 10677 ft 303 kts 63°
2026-05-07 17:33 51.51434 -3.08514 11170 ft 320 kts 63°
2026-05-07 17:33 51.52489 -3.05246 11608 ft 338 kts 63°
2026-05-07 17:33 51.53608 -3.01770 12062 ft 356 kts 63°
2026-05-07 17:34 51.54771 -2.98151 12502 ft 374 kts 63°
2026-05-07 17:34 51.55980 -2.94389 13110 ft 384 kts 64°
2026-05-07 17:34 51.57002 -2.90409 13933 ft 387 kts 77°
2026-05-07 17:34 51.57268 -2.86108 14581 ft 388 kts 95°
2026-05-07 17:35 51.56777 -2.81817 14976 ft 388 kts 107°
2026-05-07 17:35 51.56025 -2.77600 15014 ft 388 kts 108°
2026-05-07 17:35 51.55512 -2.74815 15019 ft 388 kts 108°
2026-05-07 17:35 51.54763 -2.70636 15020 ft 388 kts 108°
2026-05-07 17:36 51.54063 -2.66425 15016 ft 388 kts 105°
2026-05-07 17:36 51.53525 -2.62178 15019 ft 389 kts 102°
2026-05-07 17:36 51.53155 -2.57854 15022 ft 389 kts 98°
2026-05-07 17:36 51.52867 -2.53493 15023 ft 390 kts 98°
2026-05-07 17:37 51.52591 -2.49142 15025 ft 390 kts 98°
2026-05-07 17:37 51.52310 -2.44805 15024 ft 390 kts 98°
2026-05-07 17:37 51.52023 -2.40466 15021 ft 390 kts 98°
2026-05-07 17:37 51.51733 -2.36147 15018 ft 390 kts 98°
2026-05-07 17:38 51.51438 -2.31805 15017 ft 390 kts 98°
2026-05-07 17:38 51.51140 -2.27447 15022 ft 390 kts 98°
2026-05-07 17:38 51.50841 -2.23107 15024 ft 389 kts 98°
2026-05-07 17:38 51.50538 -2.18736 15023 ft 389 kts 98°
2026-05-07 17:39 51.50227 -2.14268 15021 ft 389 kts 98°
2026-05-07 17:39 51.49909 -2.09711 15031 ft 389 kts 98°
2026-05-07 17:39 51.49601 -2.05335 15028 ft 389 kts 98°
2026-05-07 17:39 51.49299 -2.01073 15029 ft 389 kts 98°
2026-05-07 17:40 51.48992 -1.96745 15027 ft 390 kts 98°
2026-05-07 17:40 51.48678 -1.92354 15030 ft 390 kts 98°
2026-05-07 17:40 51.48372 -1.88091 15005 ft 389 kts 98°
2026-05-07 17:40 51.48056 -1.83716 14494 ft 390 kts 98°
2026-05-07 17:41 51.47737 -1.79328 13890 ft 391 kts 98°
2026-05-07 17:41 51.47419 -1.74973 13215 ft 391 kts 98°
2026-05-07 17:41 51.47048 -1.70648 12493 ft 389 kts 103°
2026-05-07 17:41 51.46381 -1.66466 11823 ft 383 kts 110°
2026-05-07 17:42 51.45406 -1.62485 11239 ft 374 kts 116°
2026-05-07 17:42 51.44327 -1.58757 11047 ft 363 kts 117°
2026-05-07 17:42 51.43253 -1.55146 11046 ft 363 kts 117°
2026-05-07 17:42 51.42164 -1.51490 11030 ft 363 kts 117°
2026-05-07 17:43 51.41065 -1.47783 11017 ft 363 kts 117°
2026-05-07 17:43 51.39988 -1.44141 10976 ft 355 kts 117°
2026-05-07 17:43 51.38951 -1.40625 10958 ft 333 kts 117°
2026-05-07 17:43 51.37974 -1.37312 10540 ft 327 kts 117°
2026-05-07 17:44 51.37004 -1.34041 10009 ft 321 kts 117°
2026-05-07 17:44 51.36063 -1.30869 9467 ft 311 kts 117°
2026-05-07 17:44 51.35037 -1.27947 8905 ft 300 kts 134°
2026-05-07 17:44 51.33349 -1.26108 8350 ft 286 kts 165°
2026-05-07 17:45 51.31473 -1.25642 8058 ft 269 kts 179°
2026-05-07 17:45 51.29642 -1.25537 8034 ft 256 kts 180°
2026-05-07 17:45 51.27899 -1.25413 8066 ft 244 kts 179°
2026-05-07 17:45 51.26247 -1.25242 8037 ft 233 kts 177°
2026-05-07 17:46 51.24654 -1.25052 8039 ft 233 kts 177°
2026-05-07 17:46 51.23038 -1.24840 8041 ft 233 kts 176°
2026-05-07 17:46 51.21401 -1.24611 8041 ft 233 kts 177°
2026-05-07 17:46 51.19766 -1.24540 7844 ft 233 kts 186°
2026-05-07 17:47 51.18144 -1.24963 7335 ft 240 kts 194°
2026-05-07 17:47 51.16548 -1.25626 7044 ft 239 kts 196°
2026-05-07 17:47 51.14947 -1.26322 7030 ft 230 kts 196°
2026-05-07 17:47 51.13404 -1.26989 7026 ft 230 kts 195°
2026-05-07 17:48 51.11843 -1.27654 7076 ft 230 kts 196°
2026-05-07 17:48 51.10301 -1.28309 7086 ft 230 kts 195°
2026-05-07 17:48 51.08746 -1.28965 7063 ft 230 kts 195°
2026-05-07 17:48 51.07198 -1.29614 7054 ft 230 kts 195°
2026-05-07 17:49 51.05665 -1.30354 6730 ft 232 kts 206°
2026-05-07 17:49 51.04404 -1.31973 6259 ft 235 kts 227°
2026-05-07 17:49 51.03328 -1.33932 5856 ft 234 kts 230°
2026-05-07 17:49 51.02282 -1.35944 5473 ft 233 kts 230°
2026-05-07 17:50 51.01255 -1.37954 5075 ft 234 kts 230°
2026-05-07 17:50 51.00245 -1.39942 4999 ft 227 kts 230°
2026-05-07 17:50 50.99251 -1.41910 5003 ft 228 kts 230°
2026-05-07 17:50 50.98254 -1.43889 5002 ft 228 kts 230°
2026-05-07 17:51 50.97262 -1.45861 4998 ft 228 kts 231°
2026-05-07 17:51 50.96273 -1.47828 4999 ft 228 kts 230°
2026-05-07 17:51 50.95281 -1.49797 4998 ft 228 kts 230°
2026-05-07 17:51 50.94293 -1.51761 4998 ft 228 kts 230°
2026-05-07 17:52 50.93298 -1.53721 4997 ft 227 kts 230°
2026-05-07 17:52 50.92307 -1.55680 4996 ft 228 kts 230°
2026-05-07 17:52 50.91319 -1.57640 4993 ft 228 kts 230°
2026-05-07 17:52 50.90328 -1.59615 4988 ft 229 kts 230°
2026-05-07 17:53 50.89352 -1.61561 4986 ft 229 kts 230°
2026-05-07 17:53 50.88346 -1.63551 4987 ft 228 kts 230°
2026-05-07 17:53 50.87353 -1.65522 4991 ft 228 kts 231°
2026-05-07 17:53 50.86616 -1.67699 4883 ft 229 kts 252°
2026-05-07 17:54 50.86263 -1.70229 4433 ft 233 kts 259°
2026-05-07 17:54 50.86002 -1.72762 3904 ft 240 kts 260°
2026-05-07 17:54 50.85742 -1.75482 3352 ft 251 kts 260°
2026-05-07 17:54 50.85495 -1.78243 3009 ft 251 kts 260°
2026-05-07 17:55 50.85266 -1.80896 2990 ft 236 kts 261°
2026-05-07 17:55 50.85024 -1.83367 2981 ft 224 kts 255°
2026-05-07 17:55 50.84615 -1.85781 2994 ft 224 kts 251°
2026-05-07 17:55 50.84152 -1.88125 2975 ft 222 kts 250°
2026-05-07 17:56 50.83687 -1.90420 2972 ft 221 kts 250°
2026-05-07 17:56 50.83218 -1.92773 2963 ft 221 kts 250°
2026-05-07 17:56 50.82771 -1.95063 2969 ft 221 kts 250°
2026-05-07 17:56 50.82315 -1.97387 2958 ft 221 kts 250°
2026-05-07 17:57 50.81868 -1.99712 2966 ft 221 kts 250°
2026-05-07 17:57 50.81565 -2.01302 2962 ft 222 kts 250°
2026-05-07 17:57 50.80923 -2.04356 2951 ft 219 kts 237°
2026-05-07 17:57 50.79898 -2.06040 2761 ft 215 kts 205°
2026-05-07 17:58 50.78440 -2.06571 2194 ft 220 kts 177°
2026-05-07 17:58 50.76938 -2.06376 2041 ft 212 kts 168°
2026-05-07 17:58 50.75645 -2.05405 1924 ft 204 kts 132°
2026-05-07 17:58 50.74994 -2.03481 1944 ft 191 kts 103°
2026-05-07 17:59 50.75036 -2.01509 1965 ft 169 kts 80°
2026-05-07 17:59 50.75367 -1.99810 1917 ft 159 kts 75°
2026-05-07 17:59 50.75702 -1.98156 1752 ft 157 kts 77°
2026-05-07 17:59 50.75996 -1.96478 1508 ft 156 kts 78°
2026-05-07 18:00 50.76270 -1.94787 1317 ft 155 kts 79°
2026-05-07 18:00 50.76545 -1.93097 1086 ft 155 kts 79°
2026-05-07 18:00 50.76817 -1.91445 854 ft 155 kts 79°
2026-05-07 18:00 50.77080 -1.89799 659 ft 155 kts 79°
2026-05-07 18:01 50.77354 -1.88156 464 ft 154 kts 78°
2026-05-07 18:01 50.77631 -1.86517 243 ft 153 kts 79°
2026-05-07 18:01 50.77905 -1.84866 62 ft 151 kts 78°
2026-05-07 18:01 50.78139 -1.83451 52 ft 98 kts 74°
2026-05-07 18:02 50.78233 -1.82860 51 ft 1 kts 89°
2026-05-07 18:02 50.78233 -1.82858 51 ft 0 kts 89°
2026-05-07 18:02 50.78224 -1.82799 47 ft 10 kts 115°
2026-05-07 18:03 50.78243 -1.82728 52 ft 6 kts 349°
2026-05-07 18:03 50.78248 -1.82800 47 ft 9 kts 251°
2026-05-07 18:03 50.78227 -1.82923 51 ft 14 kts 256°
2026-05-07 18:03 50.78197 -1.83105 52 ft 22 kts 255°
2026-05-07 18:04 50.78157 -1.83347 46 ft 24 kts 255°
2026-05-07 18:04 50.78112 -1.83617 53 ft 26 kts 255°
2026-05-07 18:04 50.78075 -1.83857 47 ft 19 kts 270°
2026-05-07 18:04 50.78181 -1.83948 50 ft 20 kts 346°
2026-05-07 18:05 50.78324 -1.84007 51 ft 23 kts 345°
2026-05-07 18:05 50.78480 -1.84071 48 ft 24 kts 345°
2026-05-07 18:05 50.78579 -1.84112 52 ft 7 kts 345°
2026-05-07 18:05 50.78615 -1.84171 49 ft 9 kts 273°
2026-05-07 18:06 50.78607 -1.84234 52 ft 0 kts 256°
2026-05-07 18:06 50.78607 -1.84235 53 ft 0 kts 256°
2026-05-07 18:06 50.78605 -1.84244 53 ft 0 kts 256°